Regional Weather Roundup
Issued by NWS

Home | Current Version | Previous Version | Text Only | Print | Product List | Glossary On
Versions: 1 2 3 4 5 6 7 8 9 10 11 12 13 14 15 16 17 18 19 20 21 22 23 24 25 26 27 28 29 30 31 32 33 34 35 36 37 38 39 40 41 42 43 44 45 46 47 48 49 50
000
ASUS45 KBOI 281710
RWRID

IDAHO REGIONAL WEATHER ROUNDUP
NATIONAL WEATHER SERVICE BOISE ID
1100 AM MDT FRI AUG 28 2015

NOTE: "FAIR" INDICATES FEW OR NO CLOUDS BELOW 12000 FEET
WITH NO SIGNIFICANT WEATHER AND/OR OBSTRUCTIONS TO VISIBILITY

IDZ012-014-281800-
SOUTHWEST IDAHO


CITY           SKY/WX    TMP DP  RH WIND       PRES   REMARKS
BOISE          PTSUNNY   79  38  22 CALM      30.05S
CALDWELL       PTSUNNY   79  46  31 SE3       30.05S
MOUNTAIN HOME  MOSUNNY   82  39  21 E17       30.04S
$$

IDZ016-017-281800-
SOUTHCENTRAL IDAHO


CITY           SKY/WX    TMP DP  RH WIND       PRES   REMARKS
BURLEY         SUNNY     78  47  33 E8        30.13F
JEROME         SUNNY     80  44  27 E9        30.13S
TWIN FALLS     SUNNY     80  49  33 E9        30.13S
$$

IDZ019>023-281800-
SOUTHEAST IDAHO


CITY           SKY/WX    TMP DP  RH WIND       PRES   REMARKS
IDAHO FALLS    SUNNY     67  49  52 CALM      30.24S
POCATELLO      SUNNY     78  45  30 E9        30.20F
REXBURG        SUNNY     69  46  43 VRB3      30.24F
$$

IDZ006-010-011-018-031-032-281800-
CENTRAL IDAHO MOUNTAINS


CITY           SKY/WX    TMP DP  RH WIND       PRES   REMARKS
MCCALL         PTSUNNY   65  40  39 CALM      30.16R HAZE
HAILEY         MOSUNNY   73  43  33 NW7       30.25F
STANLEY          N/A     61  34  36 VRB5      30.30F
SALMON         CLOUDY    63  43  48 CALM      30.16F
CHALLIS        MOSUNNY   67  35  30 NE3       30.22F
$$

IDZ002-004-006-007-026-281800-
NORTHERN IDAHO


CITY           SKY/WX    TMP DP  RH WIND       PRES   REMARKS
LEWISTON       CLOUDY    74  43  32 CALM      29.97R HAZE
LOWELL           N/A     63  51  65 N5        29.98F
COEUR D`ALENE  CLOUDY    68  48  49 S6        29.97S
MULLAN PASS    CLOUDY    62  39  42 VRB3      30.15S HAZE
$$


USA.gov is the U.S. government's official web portal to all federal, state and local government web resources and services.